Regional Weather Roundup
Issued by NWS

Home | Current Version | Previous Version | Text Only | Print | Product List | Glossary Off
Versions: 1 2 3 4 5 6 7 8 9 10 11 12 13 14 15 16 17 18 19 20 21 22 23 24 25 26 27 28 29 30 31 32 33 34 35 36 37 38 39 40 41 42 43 44 45 46 47 48 49 50

000
ASUS43 KLSX 010207
RWRMO

WEATHER SUMMARY FOR MISSOURI
NATIONAL WEATHER SERVICE SPRINGFIELD MO
800 PM CST SAT FEB 28 2015

NOTE: "FAIR" INDICATES FEW OR NO CLOUDS BELOW 12,000 FEET WITH NO
       SIGNIFICANT WEATHER AND/OR OBSTRUCTIONS TO VISIBILITY.
       CURRENT SKY AND/OR WEATHER CONDITIONS ARE NOT AVAILABLE FOR
       CHILLICOTHE AND FARMINGTON.

MOZ001>031-035>038-043-044-053-054-010300-
...NORTHERN AND WESTERN MISSOURI...

CITY           SKY/WX    TMP DP  RH WIND       PRES   REMARKS
KANSAS CTY INT CLOUDY    22  19  89 S7        30.37S WCI  13
KANSAS C DTWN  CLOUDY    24  18  77 E3        30.40S
LEE`S SUMMIT   LGT SNOW  22  19  89 CALM      30.39R FOG
ST JOSEPH      CLOUDY    23  18  81 CALM      30.40S
CHILLICOTHE      N/A     23  19  85 SE3       30.42S
KIRKSVILLE     LGT SNOW  20  18  92 SE5       30.42S FOG     WCI  13

$$
MOZ066>068-077>081-088>096-101>105-010300-
...SOUTHWEST MISSOURI...

CITY           SKY/WX    TMP DP  RH WIND       PRES   REMARKS
SPRINGFIELD    LGT SNOW  25  23  92 SE9       30.33F FOG     WCI  15
JOPLIN         LGT SNOW  25  23  92 E3        30.36S FOG

$$
MOZ032>034-039>042-045>050-055>058-069>072-010300-
...CENTRAL MISSOURI...

CITY           SKY/WX    TMP DP  RH WIND       PRES   REMARKS
COLUMBIA       LGT SNOW  23  21  92 E7        30.40S FOG     WCI  15
JEFFERSON CITY LGT SNOW  24  22  91 E6        30.43S FOG     WCI  17
ROLLA          LGT SNOW  24  21  88 E9        30.37F VSB 1   WCI  14
SEDALIA        LGT SNOW  24  21  88 E3        30.40R FOG
WARRENSBURG    LGT SNOW  23  21  93 CALM      30.40S
OSAGE BEACH    CLOUDY    25  21  86 E5        30.38F WCI  19

$$
MOZ051-052-059>065-010300-
...EAST CENTRAL MISSOURI...

CITY           SKY/WX    TMP DP  RH WIND       PRES   REMARKS
ST LOUIS INTL  LGT SNOW  25  21  86 E9        30.46F FOG     WCI  15
SPIRIT OF STL  LGT SNOW  25  22  88 E3        30.45F FOG
ST CHARLES     LGT SNOW  23  21  92 E9        30.46F FOG     WCI  13

$$
MOZ072>076-082>087-097>100-106>115-010300-
...SOUTH CENTRAL AND SOUTHEAST MISSOURI...

CITY           SKY/WX    TMP DP  RH WIND       PRES   REMARKS
CAPE GIRARDEAU CLOUDY    31  23  72 N9        30.47S WCI  23
FARMINGTON     CLOUDY    25  23  93 SE5       30.46F WCI  19
POPLAR BLUFF   CLOUDY    30  21  69 N7        30.45S WCI  23
WEST PLAINS    MIX PCPN  25  22  88 E7        30.39S WCI  17

$$


USA.gov is the U.S. government's official web portal to all federal, state and local government web resources and services.